Home   Weather   Arviat   Past weeks

Flag for Canada Past Weather in Arviat, Nunavut, Canada — Yesterday and Last 2 Weeks

Now
45 °F

Clear.


Feels Like: 35 °F
Forecast: 37 / 45 °F
Wind: 28 mph from West

Location: Arviat Airport

Current Time: Sep 29, 2016 at 12:08:24 AM

Latest Report: Sep 28, 2016 at 11:00 PM


Visibility: 9 mi

Pressure: 29.98 "Hg

Humidity: 71%

Dew Point: 36 °F

Location of ArviatLocation

Past Weather in Arviat — Graph

°F

Arviat Temperature Yesterday

Maximum temperature yesterday: 52 °F (at 1:00 PM)
Minimum temperature yesterday: 43 °F (at 12:00 AM)
Average temperature yesterday: 46 °F

High & Low Weather Summary for the Past Weeks

 TemperatureHumidityPressure
High54 °F (Sep 24, 12:00 PM)100% (Sep 14, 12:00 AM)30.22 "Hg (Sep 14, 12:00 AM)
Low30 °F (Sep 22, 2:00 AM)53% (Sep 14, 4:00 PM)29.24 "Hg (Sep 19, 4:00 PM)
Average43 °F90%29.81 "Hg
* Reported Sep 13 11:00 PM — Sep 28 11:00 PM, Arviat, Weather by CustomWeather, © 2016

Note: Actual official high and low records may vary slightly from our data, if they occured in-between our weather recording intervals... More about our weather records

Advertising

Arviat Weather History for the Previous 24 Hours

Scroll right to see more
 ConditionsComfort  
Time TempWeatherWind HumidityBarometerVisibility
11:00 PM
Wed, Sep 28
45 °FClear.28 mph71%29.98 "Hg9 mi
10:00 PM45 °FClear.25 mph71%29.97 "Hg9 mi
9:00 PM45 °FPassing clouds.20 mph76%29.96 "Hg9 mi
8:00 PM45 °FClear.21 mph76%29.95 "Hg9 mi
7:00 PM48 °FPassing clouds.25 mph66%29.92 "Hg9 mi
6:00 PM48 °FScattered clouds.28 mph71%29.89 "Hg9 mi
5:56 PM48 °FPassing clouds.28 mph71%29.89 "Hg9 mi
5:00 PM50 °FSprinkles. Scattered clouds.25 mph67%29.87 "Hg15 mi
4:00 PM52 °FScattered clouds.35 mph58%29.85 "Hg15 mi
3:00 PM52 °FScattered clouds.25 mph62%29.84 "Hg15 mi
2:00 PM52 °FScattered clouds.29 mph62%29.83 "Hg15 mi
1:00 PM52 °FScattered clouds.29 mph62%29.81 "Hg15 mi
12:00 PM50 °FScattered clouds.28 mph71%29.80 "Hg15 mi
11:00 AM50 °FPassing clouds.24 mph82%29.79 "Hg15 mi
10:00 AM46 °FPartly sunny.20 mph93%29.80 "Hg15 mi
9:00 AM43 °FPartly sunny.15 mph100%29.81 "Hg12 mi
8:49 AM43 °FPartly sunny.13 mph100%29.81 "Hg15 mi
8:00 AM43 °FBroken clouds.15 mph100%29.82 "Hg15 mi
7:00 AM43 °FPassing clouds.18 mph100%29.83 "Hg15 mi
6:00 AM43 °FMostly cloudy.15 mph100%29.84 "Hg9 mi
5:00 AM43 °FMostly cloudy.13 mph100%29.86 "Hg9 mi
4:00 AM43 °FLight rain. Fog.12 mph100%29.89 "Hg6 mi
3:00 AM43 °FLow clouds.12 mph100%29.90 "Hg9 mi
2:55 AM43 °FLow clouds.13 mph100%29.91 "Hg9 mi
2:00 AM43 °FLow clouds.10 mph100%29.93 "Hg9 mi
1:00 AM43 °FLow clouds.10 mph100%29.96 "Hg9 mi
12:00 AM43 °FLow clouds.10 mph100%29.98 "Hg9 mi
Weather by CustomWeather, © 2016

See weather overviewHow to use our weather pages